Weather History for KBLF - January, 2013

Change the Weather History Date:

Saturday, January 12, 2013

  Actual Average Record
Temperature  
Mean Temperature 66 °F 34 °F  
Max Temperature 72 °F 42 °F 72 °F (2013)
Min Temperature 60 °F 26 °F 1 °F (1982)
Degree Days  
Heating Degree Days 0 31  
Month to date heating degree days 293 372  
Since 1 July heating degree days 2053 2137  
Cooling Degree Days 1 0  
Month to date cooling degree days 1 0  
Year to date cooling degree days 1 0  
Growing Degree Days 16 (Base 50)    
Moisture  
Dew Point 55 °F    
Average Humidity 67    
Maximum Humidity 84    
Minimum Humidity 49    
Precipitation  
Precipitation 0.02 in 0.09 in 0.88 in (1975)
Month to date precipitation 0.28 1.13  
Year to date precipitation 0.28 1.13  
Snow  
Snow 0.00 in - - ()
Month to date snowfall 0.3  
Since 1 July snowfall 17.2  
Snow Depth 0.00 in    
Sea Level Pressure  
Sea Level Pressure 30.08 in    
Wind  
Wind Speed 9 mph (WSW)    
Max Wind Speed 21 mph    
Max Gust Speed 28 mph    
Visibility 10 miles    
Events Rain    
T = Trace of Precipitation, MM = Missing Value Source: NWS Daily Summary

Daily Weather History Graph

Daily Weather History Graph

Search for Another Location

Airport or City:

Trip Planner

Search our weather history database for the weather conditions in past years. The results will help you decide how hot, cold, wet, or windy it might be!

Date:

Astronomy

Jan. 12, 2013 Rise Set
Actual Time 7:38 AM EST 5:28 PM EST
Civil Twilight 7:09 AM EST 5:56 PM EST
Nautical Twilight 6:37 AM EST 6:29 PM EST
Astronomical Twilight 6:06 AM EST 7:00 PM EST
Moon 7:58 AM EST (1/12) 6:52 PM EST (1/12)
Length of Visible Light 10h 46m
Length of Day
9h 49m
New Moon, 1% of the Moon is Illuminated
Jan 12
New Moon
Jan 18
First Quarter
Jan 26
Full
Feb 3
Last Quarter
Feb 10
New

Hourly Weather History & Observations

Time (EST) Temp. Dew Point Humidity Pressure Visibility Wind Dir Wind Speed Gust Speed Precip Events Conditions
12:02 AM 60.8 °F 53.6 °F 77% 30.12 in 10.0 mi West 16.1 mph 21.9 mph N/A   Mostly Cloudy
12:52 AM 62.1 °F 54.0 °F 75% 30.06 in 10.0 mi West 13.8 mph 25.3 mph N/A   Overcast
1:43 AM 62.6 °F 53.6 °F 72% 30.12 in 10.0 mi West 15.0 mph 25.3 mph N/A   Scattered Clouds
1:52 AM 61.0 °F 54.0 °F 78% 30.06 in 10.0 mi West 12.7 mph 20.7 mph N/A   Scattered Clouds
2:08 AM 62.6 °F 53.6 °F 72% 30.12 in 10.0 mi West 13.8 mph - N/A   Mostly Cloudy
2:52 AM 62.1 °F 55.9 °F 80% 30.06 in 10.0 mi WSW 11.5 mph 21.9 mph N/A   Overcast
3:52 AM 62.1 °F 55.9 °F 80% 30.06 in 10.0 mi West 9.2 mph - N/A   Overcast
4:52 AM 62.1 °F 57.0 °F 84% 30.06 in 10.0 mi West 13.8 mph 24.2 mph 0.00 in   Overcast
5:52 AM 63.0 °F 57.0 °F 81% 30.07 in 10.0 mi West 11.5 mph 20.7 mph N/A   Overcast
6:00 AM 62.6 °F 57.2 °F 82% 30.14 in 10.0 mi West 11.5 mph - N/A   Overcast
6:52 AM 61.0 °F 57.9 °F 90% 30.09 in 6.0 mi WSW 6.9 mph - 0.01 in Rain Light Rain
7:52 AM 61.0 °F 57.0 °F 87% 30.10 in 10.0 mi WSW 5.8 mph - 0.01 in   Overcast
8:34 AM 62.6 °F 55.4 °F 77% 30.17 in 10.0 mi West 9.2 mph - N/A   Scattered Clouds
8:52 AM 62.1 °F 55.9 °F 80% 30.12 in 10.0 mi West 11.5 mph - N/A   Partly Cloudy
9:52 AM 64.0 °F 55.9 °F 75% 30.12 in 10.0 mi West 12.7 mph - N/A   Overcast
10:52 AM 64.9 °F 55.0 °F 70% 30.12 in 10.0 mi West 11.5 mph 19.6 mph N/A   Mostly Cloudy
11:37 AM 66.2 °F 55.4 °F 68% 30.17 in 10.0 mi West 10.4 mph 17.3 mph N/A   Mostly Cloudy
12:31 PM 69.8 °F 53.6 °F 56% 30.15 in 10.0 mi WSW 16.1 mph 21.9 mph N/A   Scattered Clouds
12:52 PM 70.0 °F 53.1 °F 55% 30.06 in 10.0 mi West 11.5 mph - N/A   Clear
1:52 PM 71.1 °F 51.1 °F 49% 30.06 in 10.0 mi WSW 15.0 mph - N/A   Partly Cloudy
2:52 PM 71.1 °F 51.1 °F 49% 30.04 in 10.0 mi West 4.6 mph - N/A   Clear
3:52 PM 69.1 °F 53.1 °F 57% 30.06 in 10.0 mi SW 8.1 mph - N/A   Mostly Cloudy
4:52 PM 68.0 °F 55.0 °F 63% 30.05 in 10.0 mi South 3.5 mph - 0.00 in Rain Light Rain
5:52 PM 66.0 °F 55.0 °F 68% 30.04 in 10.0 mi South 5.8 mph - 0.00 in   Partly Cloudy
6:52 PM 66.0 °F 54.0 °F 65% 30.04 in 10.0 mi South 6.9 mph - N/A   Partly Cloudy
7:52 PM 64.9 °F 54.0 °F 68% 30.03 in 10.0 mi Calm Calm - N/A   Clear
8:52 PM 64.9 °F 54.0 °F 68% 30.02 in 10.0 mi Variable 6.9 mph - N/A   Clear
9:52 PM 64.0 °F 54.0 °F 70% 30.00 in 10.0 mi SSE 11.5 mph 20.7 mph N/A   Clear
10:52 PM 63.0 °F 53.1 °F 70% 29.99 in 10.0 mi SSE 11.5 mph 19.6 mph N/A   Clear
11:52 PM 62.1 °F 52.0 °F 70% 29.99 in 10.0 mi WNW 4.6 mph - N/A   Clear